Temp
-7 -7 -7 -7 -7 -7 -8 -8 -7 -8 -8 -8 -9 -9 -9 -10 -9 -9 -9 -9 -10 -10 -10 -9 -9 -9 -8 -9 -8 -8 -8 -8 -9 -9 -9 -9 -9 -8 -8 -8 -8 -8 -7 -7 -7 -7 -7 -7 -6
-7 -7 -7 -7 -7 -7 -8 -8 -8 -8 -8 -9 -9 -9 -9 -10 -10 -10 -10 -10 -10 -10 -9 -9 -9 -9 -9 -8 -8 -8 -8 -8 -8 -9 -9 -9 -9 -9 -9 -9 -9 -8 -8 -7 -7 -8 -7 -7 -7
-8 -8 -7 -7 -7 -8 -8 -8 -8 -9 -9 -9 -10 -10 -10 -10 -10 -10 -10 -10 -10 -10 -10 -9 -9 -9 -8 -9 -9 -9 -9 -9 -10 -10 -10 -9 -9 -10 -9 -9 -9 -9 -9 -8 -8 -8 -8 -7 -7
-8 -8 -8 -8 -8 -8 -8 -8 -9 -9 -9 -9 -10 -10 -10 -10 -10 -10 -10 -10 -10 -10 -10 -9 -9 -9 -9 -9 -9 -9 -9 -10 -10 -10 -10 -10 -9 -9 -10 -10 -9 -9 -9 -9 -8 -9 -8 -7 -8
-9 -9 -8 -8 -8 -8 -9 -9 -9 -9 -9 -10 -10 -10 -10 -10 -11 -11 -11 -11 -10 -11 -10 -10 -10 -9 -9 -10 -10 -10 -10 -10 -10 -10 -10 -10 -9 -9 -9 -9 -9 -9 -9 -9 -9 -9 -8 -8 -7
-9 -9 -9 -9 -9 -8 -9 -9 -10 -9 -10 -10 -10 -10 -10 -10 -11 -11 -11 -11 -11 -11 -11 -10 -10 -10 -11 -11 -11 -11 -10 -10 -10 -11 -10 -10 -10 -10 -10 -9 -9 -9 -9 -9 -9 -9 -8 -8 -8
-10 -10 -10 -9 -9 -9 -10 -10 -11 -11 -11 -10 -10 -10 -10 -10 -10 -11 -11 -11 -12 -12 -12 -12 -12 -11 -11 -11 -11 -11 -11 -11 -11 -11 -11 -11 -11 -10 -10 -10 -10 -10 -9 -9 -9 -9 -9 -9 -8
-11 -10 -10 -10 -9 -10 -10 -11 -11 -11 -11 -10 -10 -11 -11 -11 -11 -11 -10 -12 -11 -12 -13 -12 -12 -12 -12 -12 -11 -11 -11 -12 -12 -12 -11 -11 -11 -11 -10 -10 -10 -10 -10 -10 -10 -10 -10 -10 -9
-11 -10 -10 -9 -9 -10 -10 -11 -11 -11 -11 -11 -11 -11 -11 -12 -11 -11 -11 -12 -12 -12 -13 -13 -13 -12 -12 -12 -12 -12 -12 -12 -12 -12 -12 -11 -11 -11 -11 -11 -11 -10 -10 -10 -10 -11 -11 -10 -10
-11 -11 -10 -10 -11 -11 -11 -11 -11 -11 -11 -10 -11 -12 -12 -12 -12 -11 -12 -12 -12 -12 -13 -13 -13 -13 -12 -12 -12 -12 -12 -12 -12 -12 -12 -12 -12 -11 -11 -11 -11 -11 -12 -12 -11 -11 -11 -11 -10
-11 -9 -10 -11 -11 -11 -12 -11 -11 -11 -10 -10 -11 -11 -12 -12 -12 -11 -12 -12 -12 -12 -13 -13 -13 -13 -13 -13 -12 -12 -13 -12 -12 -12 -12 -12 -12 -12 -11 -12 -12 -11 -11 -11 -12 -12 -11 -11 -11
-11 -10 -11 -11 -12 -12 -12 -11 -11 -10 -10 -10 -12 -12 -12 -12 -12 -12 -12 -13 -12 -12 -13 -13 -13 -13 -13 -13 -12 -13 -13 -12 -12 -12 -12 -12 -12 -12 -12 -12 -12 -12 -12 -11 -11 -11 -11 -11 -11
-10 -10 -11 -11 -11 -12 -11 -11 -11 -10 -11 -12 -12 -12 -12 -12 -12 -11 -12 -12 -12 -12 -12 -13 -13 -13 -13 -13 -13 -13 -13 -12 -12 -12 -12 -12 -12 -12 -12 -12 -12 -12 -12 -12 -12 -11 -11 -11 -11
-11 -11 -11 -12 -12 -12 -11 -11 -10 -10 -11 -12 -12 -12 -12 -12 -11 -11 -11 -12 -12 -11 -12 -13 -13 -13 -13 -13 -13 -13 -13 -13 -12 -12 -12 -12 -12 -12 -12 -12 -12 -12 -12 -12 -12 -12 -12 -11 -11
-12 -11 -12 -12 -12 -11 -12 -9 -9 -11 -11 -11 -11 -12 -11 -11 -11 -10 -10 -12 -12 -11 -12 -13 -13 -13 -13 -13 -13 -13 -13 -13 -12 -12 -12 -12 -12 -12 -12 -12 -12 -12 -12 -12 -12 -12 -12 -12 -12
-12 -12 -11 -11 -12 -12 -12 -7 -11 -11 -11 -11 -12 -12 -11 -10 -10 -10 -11 -12 -11 -11 -11 -12 -13 -13 -13 -13 -13 -13 -13 -13 -13 -12 -12 -13 -12 -12 -12 -12 -12 -13 -12 -12 -13 -13 -13 -13 -13
-12 -11 -10 -11 -11 -12 -12 -9 -11 -11 -11 -11 -12 -11 -11 -10 -10 -11 -11 -11 -11 -12 -12 -12 -13 -13 -13 -13 -13 -13 -13 -13 -13 -12 -13 -13 -13 -12 -12 -13 -13 -13 -13 -13 -13 -13 -13 -14 -14
-9 -9 -10 -10 -11 -12 -12 -10 -11 -11 -11 -11 -12 -11 -10 -10 -10 -11 -11 -11 -11 -12 -12 -13 -13 -12 -13 -13 -13 -13 -13 -12 -13 -13 -13 -13 -12 -13 -13 -13 -13 -13 -13 -13 -13 -14 -14 -14 -14
-11 -11 -11 -11 -11 -12 -11 -11 -11 -12 -12 -11 -11 -11 -10 -10 -10 -11 -11 -11 -11 -12 -13 -13 -13 -13 -13 -13 -13 -13 -13 -12 -13 -13 -13 -12 -13 -13 -13 -13 -13 -14 -14 -14 -15 -15 -14 -15 -15
-12 -11 -12 -12 -12 -12 -12 -11 -12 -12 -12 -11 -11 -10 -10 -10 -10 -11 -11 -11 -11 -12 -12 -13 -12 -12 -12 -13 -13 -13 -13 -13 -13 -12 -12 -12 -13 -13 -13 -13 -13 -14 -14 -15 -15 -15 -15 -15 -16
-11 -11 -12 -12 -13 -13 -12 -11 -11 -11 -12 -11 -11 -10 -10 -10 -11 -11 -11 -11 -11 -11 -12 -12 -12 -12 -12 -13 -12 -13 -13 -13 -12 -12 -12 -13 -13 -13 -13 -14 -14 -14 -15 -15 -15 -15 -15 -15 -16
-12 -12 -13 -13 -13 -12 -13 -11 -11 -11 -11 -11 -10 -10 -11 -11 -11 -11 -11 -10 -11 -11 -11 -11 -12 -12 -12 -12 -12 -12 -12 -12 -12 -12 -12 -13 -13 -13 -14 -14 -14 -15 -15 -15 -16 -15 -15 -15 -15
-11 -13 -13 -13 -12 -12 -11 -11 -9 -11 -11 -10 -10 -11 -11 -11 -11 -11 -11 -12 -11 -12 -11 -11 -12 -12 -12 -12 -12 -12 -12 -12 -12 -12 -13 -13 -13 -14 -14 -14 -15 -15 -15 -15 -15 -15 -15 -15 -15
-12 -13 -12 -13 -13 -10 -9 -10 -8 -10 -11 -10 -11 -11 -11 -11 -11 -11 -11 -12 -11 -11 -11 -11 -11 -12 -12 -12 -12 -12 -12 -12 -12 -13 -13 -13 -13 -14 -14 -14 -15 -15 -14 -14 -14 -14 -15 -15 -15
-12 -13 -12 -13 -12 -9 -11 -11 -9 -11 -10 -10 -11 -10 -11 -11 -11 -11 -12 -11 -11 -11 -11 -11 -12 -12 -12 -12 -12 -12 -12 -12 -12 -13 -13 -13 -14 -14 -14 -14 -14 -14 -14 -14 -14 -14 -14 -14 -14
-11 -12 -11 -12 -12 -12 -12 -10 -9 -11 -11 -10 -10 -11 -11 -12 -11 -11 -11 -11 -11 -11 -11 -12 -12 -12 -12 -12 -12 -12 -12 -13 -13 -13 -13 -13 -14 -14 -14 -14 -14 -14 -14 -14 -14 -14 -14 -13 -14
-11 -11 -12 -12 -12 -12 -11 -11 -10 -11 -10 -10 -11 -11 -12 -12 -11 -11 -11 -11 -11 -11 -11 -11 -12 -12 -12 -12 -12 -12 -12 -13 -13 -13 -13 -13 -14 -14 -14 -14 -14 -14 -13 -13 -13 -13 -13 -13 -13
-11 -12 -12 -12 -12 -11 -11 -10 -10 -10 -10 -10 -11 -11 -12 -12 -11 -11 -11 -11 -11 -11 -11 -12 -12 -12 -12 -12 -12 -12 -13 -13 -12 -13 -13 -13 -13 -14 -14 -14 -14 -13 -13 -14 -13 -13 -13 -13 -13
-11 -10 -11 -12 -12 -11 -9 -10 -10 -10 -11 -11 -11 -12 -11 -11 -11 -11 -11 -11 -11 -11 -11 -12 -12 -12 -13 -12 -12 -12 -13 -12 -12 -12 -13 -13 -13 -13 -14 -14 -14 -14 -13 -14 -13 -12 -13 -13 -13
-12 -12 -11 -11 -10 -11 -10 -10 -10 -11 -11 -12 -11 -11 -11 -11 -11 -11 -11 -11 -11 -11 -12 -12 -12 -12 -12 -12 -12 -12 -12 -12 -13 -12 -12 -12 -13 -13 -13 -13 -13 -13 -13 -13 -13 -12 -13 -13 -13
Height
5896 5896 5896 5897 5901 5898 5898 5898 5896 5896 5896 5894 5893 5893 5893 5892 5889 5888 5885 5881 5880 5876 5873 5869 5866 5865 5863 5861 5859 5857 5854 5853 5851 5849 5847 5845 5844 5844 5843 5842 5842 5843 5845 5845 5846 5847 5849 5850 5850
5893 5893 5894 5896 5897 5895 5895 5893 5894 5892 5893 5892 5891 5890 5890 5888 5885 5884 5881 5877 5876 5872 5869 5865 5861 5860 5858 5856 5853 5851 5848 5846 5844 5842 5840 5838 5836 5835 5836 5836 5836 5836 5836 5837 5838 5840 5841 5843 5844
5890 5890 5892 5893 5893 5892 5891 5890 5890 5888 5888 5889 5888 5888 5887 5885 5883 5880 5878 5875 5873 5868 5864 5859 5857 5857 5854 5849 5846 5843 5841 5839 5838 5836 5834 5832 5831 5829 5829 5829 5830 5830 5830 5829 5829 5831 5833 5836 5837
5887 5887 5889 5889 5889 5889 5887 5886 5887 5886 5886 5885 5884 5885 5886 5881 5879 5877 5874 5872 5869 5864 5859 5855 5853 5851 5849 5846 5841 5838 5836 5833 5830 5828 5827 5826 5824 5823 5822 5823 5823 5823 5824 5824 5823 5823 5824 5827 5830
5881 5882 5883 5886 5885 5885 5884 5881 5883 5882 5884 5881 5880 5879 5880 5877 5874 5872 5870 5868 5865 5860 5856 5851 5848 5846 5844 5841 5838 5835 5832 5828 5825 5822 5820 5817 5816 5815 5815 5815 5815 5815 5816 5816 5816 5817 5816 5819 5822
5876 5877 5879 5881 5882 5881 5879 5878 5876 5878 5877 5877 5876 5873 5874 5870 5868 5866 5864 5862 5859 5856 5850 5846 5843 5840 5839 5837 5834 5831 5827 5824 5820 5817 5813 5811 5808 5807 5806 5806 5806 5806 5808 5808 5809 5808 5809 5810 5812
5870 5870 5873 5876 5879 5878 5875 5872 5870 5872 5872 5870 5869 5869 5868 5864 5862 5859 5858 5856 5853 5850 5846 5842 5837 5835 5833 5830 5828 5825 5822 5818 5815 5811 5808 5805 5803 5801 5800 5798 5797 5797 5798 5798 5798 5798 5799 5801 5802
5863 5863 5866 5869 5873 5874 5874 5867 5865 5865 5864 5864 5864 5861 5860 5858 5856 5853 5853 5851 5848 5844 5841 5837 5833 5831 5827 5824 5822 5818 5815 5812 5809 5805 5801 5798 5796 5794 5791 5789 5788 5788 5788 5788 5787 5787 5789 5791 5793
5855 5854 5859 5864 5866 5869 5867 5864 5861 5861 5860 5859 5860 5856 5852 5850 5849 5848 5847 5846 5843 5839 5836 5833 5829 5826 5823 5820 5817 5813 5809 5805 5801 5797 5793 5790 5788 5786 5783 5780 5779 5778 5778 5778 5777 5778 5780 5782 5784
5845 5845 5852 5861 5859 5860 5859 5858 5854 5854 5854 5859 5854 5853 5847 5844 5842 5842 5841 5839 5837 5834 5832 5828 5825 5821 5817 5815 5811 5808 5803 5799 5795 5790 5786 5783 5780 5777 5774 5771 5770 5769 5768 5768 5768 5769 5771 5773 5775
5838 5836 5849 5851 5853 5849 5850 5851 5848 5847 5849 5853 5849 5849 5845 5840 5837 5835 5835 5833 5831 5828 5826 5824 5820 5816 5812 5809 5806 5802 5797 5792 5788 5783 5779 5776 5773 5770 5767 5764 5762 5760 5759 5758 5759 5761 5763 5764 5765
5825 5829 5836 5843 5841 5836 5839 5840 5841 5838 5845 5846 5842 5837 5835 5832 5830 5828 5829 5828 5826 5822 5819 5817 5814 5812 5808 5804 5800 5795 5791 5786 5782 5778 5773 5769 5766 5763 5760 5758 5756 5753 5751 5750 5750 5751 5752 5754 5755
5812 5819 5825 5829 5830 5829 5830 5832 5833 5833 5841 5836 5832 5831 5827 5824 5821 5821 5822 5822 5820 5817 5814 5811 5809 5807 5803 5798 5793 5788 5784 5780 5776 5771 5767 5763 5759 5756 5753 5750 5747 5745 5743 5742 5742 5741 5742 5743 5743
5805 5805 5810 5812 5818 5823 5821 5825 5820 5831 5832 5826 5825 5822 5819 5816 5815 5815 5816 5816 5814 5811 5808 5805 5803 5801 5797 5793 5787 5782 5778 5774 5769 5765 5761 5757 5752 5748 5745 5742 5739 5737 5735 5734 5733 5732 5732 5733 5734
5795 5794 5797 5801 5810 5812 5815 5811 5813 5823 5822 5816 5816 5814 5810 5810 5809 5810 5810 5809 5809 5806 5802 5799 5797 5795 5792 5787 5782 5776 5772 5767 5762 5758 5755 5750 5745 5741 5737 5734 5731 5728 5726 5725 5724 5723 5723 5724 5726
5783 5785 5783 5793 5802 5803 5807 5802 5809 5815 5811 5809 5807 5804 5803 5805 5805 5806 5804 5803 5802 5800 5797 5793 5790 5787 5785 5781 5775 5770 5766 5761 5756 5752 5748 5743 5739 5734 5729 5726 5723 5720 5719 5717 5716 5715 5715 5716 5717
5769 5771 5777 5785 5790 5794 5796 5794 5797 5804 5803 5798 5798 5797 5797 5799 5800 5800 5798 5798 5797 5795 5792 5788 5785 5780 5779 5775 5770 5765 5761 5755 5750 5746 5741 5736 5732 5728 5723 5720 5716 5714 5711 5710 5708 5707 5707 5707 5708
5762 5764 5768 5772 5780 5788 5785 5785 5788 5793 5794 5789 5789 5791 5792 5793 5796 5793 5794 5793 5791 5789 5786 5783 5779 5776 5773 5769 5764 5760 5755 5749 5744 5739 5734 5730 5727 5722 5718 5714 5709 5707 5703 5701 5700 5700 5700 5700 5700
5758 5758 5760 5766 5772 5776 5777 5777 5777 5781 5784 5781 5782 5785 5787 5789 5790 5789 5788 5786 5785 5782 5780 5777 5774 5770 5766 5763 5759 5754 5749 5744 5738 5733 5729 5725 5720 5716 5711 5706 5702 5698 5696 5693 5692 5693 5693 5693 5694
5747 5748 5750 5758 5761 5763 5763 5763 5765 5770 5773 5773 5777 5781 5783 5784 5784 5784 5782 5782 5779 5776 5774 5771 5768 5765 5761 5758 5753 5748 5744 5737 5732 5728 5723 5719 5714 5709 5704 5699 5695 5692 5689 5689 5689 5688 5688 5688 5690
5737 5740 5747 5747 5749 5746 5748 5749 5753 5762 5763 5766 5771 5775 5778 5779 5779 5778 5777 5776 5773 5771 5768 5765 5763 5759 5755 5752 5747 5743 5737 5732 5728 5723 5718 5713 5708 5703 5698 5694 5690 5688 5687 5685 5685 5686 5686 5686 5687
5727 5739 5736 5736 5734 5737 5740 5731 5741 5754 5756 5759 5766 5770 5773 5773 5773 5773 5774 5771 5768 5765 5762 5760 5757 5753 5750 5747 5742 5737 5732 5727 5723 5719 5713 5708 5702 5698 5694 5690 5688 5686 5683 5683 5684 5685 5686 5688 5689
5724 5727 5726 5726 5726 5727 5731 5726 5738 5746 5749 5757 5761 5764 5765 5767 5767 5768 5768 5765 5762 5759 5757 5754 5751 5749 5746 5742 5737 5732 5728 5723 5719 5714 5708 5703 5698 5694 5691 5689 5686 5683 5681 5681 5683 5686 5689 5690 5690
5717 5718 5718 5715 5717 5713 5727 5724 5734 5744 5747 5751 5756 5758 5761 5762 5763 5764 5763 5760 5757 5755 5752 5750 5747 5744 5741 5737 5732 5728 5723 5720 5715 5710 5705 5700 5695 5692 5690 5688 5685 5684 5683 5684 5687 5689 5692 5693 5694
5702 5705 5708 5709 5707 5709 5722 5718 5736 5740 5744 5748 5750 5752 5756 5757 5760 5759 5758 5755 5752 5750 5748 5746 5743 5740 5737 5732 5728 5724 5721 5717 5712 5707 5702 5697 5694 5692 5690 5687 5687 5686 5687 5689 5690 5692 5695 5697 5699
5693 5702 5706 5708 5709 5713 5717 5714 5734 5736 5739 5742 5746 5750 5752 5753 5755 5755 5753 5750 5748 5746 5744 5742 5740 5737 5732 5729 5725 5722 5719 5714 5709 5705 5700 5697 5695 5693 5690 5689 5689 5689 5690 5693 5694 5696 5698 5700 5703
5687 5688 5703 5703 5704 5711 5711 5720 5729 5731 5736 5738 5742 5747 5748 5751 5752 5751 5748 5746 5744 5743 5742 5740 5737 5733 5729 5726 5723 5721 5717 5712 5708 5703 5700 5697 5696 5694 5692 5691 5692 5693 5695 5696 5699 5701 5703 5705 5706
5678 5690 5692 5692 5695 5702 5707 5715 5725 5728 5730 5734 5739 5743 5744 5747 5749 5746 5744 5743 5741 5741 5739 5737 5734 5730 5727 5725 5723 5720 5716 5712 5708 5703 5700 5698 5697 5696 5694 5694 5696 5697 5698 5700 5702 5705 5707 5708 5709
5665 5672 5678 5685 5691 5696 5705 5715 5723 5724 5726 5732 5737 5739 5741 5745 5745 5742 5742 5740 5739 5739 5736 5734 5732 5729 5726 5724 5721 5719 5715 5712 5708 5705 5702 5699 5699 5698 5697 5697 5699 5701 5702 5703 5706 5708 5710 5711 5712
5662 5672 5678 5683 5689 5695 5704 5713 5717 5719 5723 5729 5734 5735 5739 5742 5740 5740 5738 5737 5737 5735 5734 5733 5730 5728 5725 5723 5720 5719 5715 5711 5708 5706 5704 5701 5700 5701 5701 5701 5703 5705 5706 5708 5709 5711 5713 5715 5717
Wind_Speed
18 19 18 16 15 18 19 20 22 24 22 21 22 20 20 28 28 28 26 30 30 32 36 36 35 34 34 34 34 34 34 35 35 36 36 39 39 37 36 35 35 35 35 35 33 32 33 32 29
21 20 19 20 19 18 23 23 22 27 28 24 24 22 22 24 27 26 28 32 30 33 37 37 37 35 34 33 33 34 34 35 34 33 33 32 36 37 36 36 36 36 36 36 36 35 33 34 31
24 23 23 22 22 20 24 29 28 29 28 26 23 20 21 24 28 29 33 32 29 34 37 39 38 35 36 37 37 38 37 34 31 30 28 32 32 34 37 36 36 36 37 37 38 37 34 35 34
26 28 28 25 24 24 29 32 30 27 31 30 27 22 20 22 24 24 30 32 32 34 37 38 36 36 36 35 38 38 37 35 34 32 33 31 31 35 35 35 36 35 36 36 37 38 36 36 36
27 28 28 25 25 27 28 32 32 35 33 32 31 30 23 24 26 29 32 34 34 33 35 37 36 38 39 37 36 35 33 34 34 33 32 28 29 28 30 31 34 35 37 35 35 36 36 36 36
33 33 31 27 27 31 31 34 35 37 34 33 32 31 26 25 32 32 31 30 32 29 32 38 37 40 36 36 35 34 34 34 37 37 37 37 35 34 35 34 34 34 33 34 34 35 37 39 40
30 33 32 29 28 28 27 33 39 37 35 35 33 29 28 33 35 40 37 30 28 27 31 36 38 38 38 36 36 35 36 37 38 40 40 40 39 38 37 37 36 36 36 36 35 34 36 38 40
35 38 34 32 30 30 30 37 38 39 38 37 36 36 34 38 40 45 34 29 30 27 31 34 36 36 37 38 36 35 37 37 39 42 42 40 38 37 38 38 37 37 37 38 36 36 35 36 37
40 45 42 34 35 32 32 33 38 40 40 40 37 38 40 43 43 51 33 27 32 29 29 30 35 36 38 38 36 38 40 40 39 38 37 37 36 34 34 34 34 34 34 34 34 33 32 31 33
49 51 47 36 36 36 37 37 39 40 41 34 38 38 43 48 50 51 32 27 34 30 25 27 33 36 41 39 39 40 37 37 37 37 34 32 32 33 32 32 33 33 31 30 31 32 34 35 34
54 54 43 39 38 38 37 43 48 44 39 31 38 37 43 50 53 42 25 28 31 30 23 27 31 35 42 40 38 34 34 36 36 31 28 29 30 32 31 32 32 32 33 32 30 32 33 33 33
47 53 48 43 41 46 41 40 42 45 32 33 41 45 45 49 51 36 26 30 34 31 25 27 31 35 37 36 34 34 33 34 32 29 28 29 30 32 31 30 27 29 29 30 32 34 34 33 34
50 50 51 47 44 47 44 41 40 40 36 42 44 44 49 50 40 34 29 31 32 28 26 21 24 28 32 32 34 34 34 35 33 29 29 29 31 31 30 29 29 29 28 26 29 33 36 34 32
54 54 53 52 50 44 45 41 43 31 35 42 47 49 51 47 39 34 29 30 34 27 22 19 20 26 31 33 34 34 35 37 34 30 30 29 32 30 28 28 29 30 28 29 30 30 29 29 29
58 60 60 59 50 49 47 45 42 38 39 45 46 50 51 40 38 31 29 28 31 28 20 18 20 26 31 35 35 35 36 35 32 31 30 32 31 30 31 33 32 31 29 28 30 28 27 28 28
61 64 67 59 51 51 48 41 44 39 41 44 45 48 45 35 33 28 26 27 32 27 24 21 23 26 31 36 36 35 37 33 31 31 31 31 29 31 30 30 30 26 27 30 29 27 27 29 29
66 65 61 58 55 54 53 48 48 42 40 47 48 42 34 31 27 26 27 28 29 26 28 25 24 31 31 36 35 35 34 31 31 30 32 31 31 30 28 28 28 27 28 30 29 27 27 27 27
57 59 61 59 59 57 58 52 49 44 42 48 47 35 31 29 24 28 25 29 25 28 24 23 31 34 30 34 34 34 33 31 31 31 33 31 31 28 31 32 33 32 31 30 29 24 24 23 23
59 63 64 61 60 61 60 54 52 48 41 44 42 30 28 24 25 25 28 26 24 23 21 27 31 29 30 32 33 33 31 31 31 32 33 31 32 33 34 30 31 32 29 29 21 19 18 18 17
50 53 56 56 57 58 58 55 56 51 44 39 34 29 23 20 24 27 30 25 23 20 24 25 25 27 28 31 32 31 30 30 32 32 30 32 33 32 30 28 25 23 25 14 16 14 13 15 17
44 43 41 46 49 54 53 51 51 43 39 31 28 24 22 22 24 30 29 22 18 18 19 20 23 25 28 31 29 27 28 29 29 27 31 31 31 30 27 25 20 12 12 13 11 10 8 7 11
43 36 36 36 37 41 46 53 48 32 33 27 22 21 21 24 23 26 22 21 19 17 18 20 23 24 27 26 25 26 27 27 25 28 28 30 26 24 23 15 11 11 10 8 7 7 7 10 12
33 30 24 24 31 39 43 52 37 28 27 22 22 21 26 18 24 20 21 17 16 16 19 20 20 22 24 23 23 24 27 23 27 27 27 25 23 22 13 10 8 7 5 5 13 14 13 14 17
38 32 30 30 34 44 33 41 32 15 17 21 19 24 19 22 21 16 16 18 15 14 17 19 19 21 21 22 22 24 24 23 22 24 22 23 20 14 9 6 4 3 13 17 15 14 12 12 17
44 38 35 35 40 39 26 39 4 12 11 15 22 26 22 23 16 15 16 17 12 15 17 18 19 18 19 20 21 23 21 19 21 24 22 20 17 7 6 3 4 12 16 14 13 11 13 17 19
47 38 35 35 32 36 26 34 19 14 16 13 16 17 23 19 18 16 14 10 11 14 15 16 15 17 17 18 21 17 17 18 23 18 18 17 9 5 5 4 11 15 15 12 11 12 14 17 18
44 43 33 32 36 25 35 22 13 15 12 18 19 15 21 15 17 14 7 9 10 10 13 12 13 15 15 18 15 15 15 17 17 16 17 12 4 8 5 8 11 13 13 13 15 14 18 16 14
45 36 36 40 41 32 33 27 15 13 18 19 11 19 21 21 16 8 7 9 10 11 11 10 13 14 13 15 12 14 14 17 16 17 11 6 6 8 9 10 12 15 13 17 18 16 10 12 13
51 50 46 44 39 34 29 21 10 17 18 17 14 21 24 20 14 6 7 7 8 11 7 9 12 12 12 12 12 14 15 15 13 13 8 8 10 8 10 11 12 13 15 17 20 18 15 15 15
46 43 42 38 36 33 28 20 13 19 21 18 19 21 19 16 6 6 3 5 5 6 5 9 9 10 13 13 12 13 15 13 9 10 8 9 11 9 9 13 10 11 10 13 16 15 17 17 15
Wind_Direction
260 266 275 280 286 292 300 310 311 324 326 320 313 314 309 307 299 299 294 294 299 300 298 297 296 296 296 299 298 296 293 290 287 283 282 280 277 274 268 266 265 263 261 260 257 249 246 248 244
254 259 264 267 275 288 294 304 313 312 319 315 311 311 308 303 299 296 291 291 291 295 296 297 295 301 304 303 302 300 298 297 296 290 283 282 272 270 269 265 262 261 259 255 256 254 248 249 248
246 249 252 260 268 279 289 294 300 309 315 309 302 306 303 295 291 288 289 281 286 297 300 298 300 306 306 305 303 299 298 295 292 287 292 288 279 271 271 269 266 266 264 261 257 256 251 249 251
247 251 248 253 260 271 278 284 291 294 302 302 302 299 292 294 299 301 294 285 293 298 297 297 302 303 303 303 303 303 301 301 301 295 289 281 284 283 281 274 277 272 267 264 261 261 256 252 254
246 251 250 250 259 265 273 280 284 287 295 299 300 298 302 296 308 307 292 294 299 297 295 294 300 302 304 306 304 301 298 299 300 301 299 300 287 284 278 276 275 274 271 268 262 259 258 256 257
248 247 248 249 258 268 276 279 286 288 294 300 297 306 305 292 300 311 302 294 298 294 294 296 301 301 304 304 302 299 298 296 303 307 307 307 307 304 301 297 291 285 281 275 268 265 261 261 260
253 249 245 242 251 264 279 285 288 294 294 297 298 308 311 300 305 308 308 299 295 296 296 297 300 304 305 301 301 299 295 299 305 309 306 304 303 302 299 294 289 285 281 277 274 270 267 264 261
245 249 247 247 253 258 273 285 288 288 289 292 306 305 303 306 307 312 306 296 290 294 295 295 298 304 301 301 303 305 304 307 307 307 305 303 299 296 291 287 283 279 275 273 272 270 267 263 259
240 245 244 247 258 266 265 269 277 281 280 286 300 293 295 300 301 310 302 293 287 288 291 294 297 297 298 302 307 308 309 307 305 304 302 298 295 292 290 288 285 282 278 271 266 263 256 259 260
245 244 245 254 258 257 259 262 278 278 274 287 291 287 292 297 297 301 293 291 284 284 287 290 292 293 296 304 311 311 310 307 306 304 300 296 296 299 294 291 290 286 283 275 263 258 259 261 264
252 257 254 255 255 257 257 263 264 273 275 290 287 284 284 289 293 291 282 277 277 276 279 286 292 290 296 310 310 312 309 306 308 304 300 302 302 300 295 296 296 288 283 280 273 265 264 265 262
258 253 253 256 251 255 256 264 262 268 281 286 284 286 287 288 294 278 270 268 274 274 269 279 286 293 298 301 313 316 311 309 313 305 306 306 306 302 297 295 289 292 285 275 273 269 268 268 263
251 254 256 258 254 256 259 262 271 264 283 286 283 283 286 293 285 272 265 269 273 270 271 286 292 302 308 314 317 315 311 310 312 308 310 307 309 302 300 298 290 293 286 282 279 274 272 269 265
258 257 256 259 259 259 266 269 269 272 282 278 280 283 284 288 273 269 265 265 268 268 270 286 308 319 318 314 316 315 312 311 308 310 311 311 311 305 303 303 298 293 281 280 288 281 270 268 263
254 258 260 259 262 260 266 268 274 281 277 281 283 284 286 280 273 277 270 258 270 266 271 291 301 308 310 315 314 316 314 310 308 313 314 316 311 303 301 301 301 290 283 280 290 279 273 265 262
253 254 257 261 262 257 262 265 269 275 277 280 284 285 286 277 279 277 270 262 269 272 278 285 281 293 303 315 314 314 311 310 314 316 318 317 313 314 307 300 297 287 285 286 283 273 267 265 262
253 254 257 262 259 259 262 271 275 277 279 277 283 284 286 280 267 258 265 270 274 273 282 288 288 281 304 313 310 311 308 311 316 318 319 314 313 313 313 307 298 290 290 288 281 272 267 264 258
259 256 258 261 265 264 266 270 274 276 277 278 279 282 281 270 265 261 277 275 271 269 280 290 286 292 306 306 306 304 309 313 318 319 318 314 314 311 309 305 297 289 292 284 279 267 264 258 254
258 260 262 265 268 268 269 272 274 274 270 275 272 273 270 268 274 267 270 264 271 279 282 286 292 304 306 302 301 306 312 314 320 317 316 311 314 311 311 306 301 288 287 272 265 266 259 252 232
256 258 260 264 265 267 266 267 268 268 266 264 262 261 258 267 272 267 262 270 278 288 283 291 293 296 297 296 303 309 312 320 321 317 311 311 311 311 311 308 302 291 277 281 268 256 252 247 226
251 255 266 266 263 260 261 260 260 260 263 246 251 251 254 276 276 267 261 271 280 288 287 283 286 295 296 297 306 310 318 324 320 314 313 311 311 313 311 307 304 297 292 278 259 240 238 217 202
243 260 267 255 252 257 260 262 255 258 240 239 245 242 251 266 253 257 268 274 286 289 296 290 291 294 294 303 308 315 324 322 318 315 315 315 317 315 311 313 309 303 286 267 233 183 162 151 152
249 260 248 239 246 254 256 263 256 232 227 235 240 233 259 252 245 248 274 287 287 296 298 296 295 293 302 307 313 321 322 317 319 320 322 324 319 316 323 318 317 313 302 155 145 141 139 145 149
236 240 242 236 236 243 240 250 246 218 230 226 224 244 256 236 241 250 277 292 286 293 301 289 297 302 307 315 319 323 322 315 320 325 332 327 323 334 324 324 340 67 109 123 131 137 136 150 154
219 226 234 228 226 234 230 236 168 198 229 231 229 249 229 232 250 262 281 289 296 304 305 297 299 306 318 325 326 328 321 320 320 328 328 331 335 336 343 3 110 115 130 127 126 132 129 141 150
225 231 240 241 246 241 226 235 179 235 241 238 239 236 223 226 251 269 281 295 304 310 308 302 304 321 331 331 333 328 327 329 333 336 338 337 340 12 26 118 123 134 137 134 129 134 141 148 146
218 222 230 244 246 241 231 230 187 231 253 248 244 223 218 234 258 271 303 306 310 312 311 304 322 334 338 337 342 339 335 342 348 347 335 336 12 33 64 100 130 132 131 125 121 124 134 124 139
216 223 224 232 233 233 223 219 199 225 250 260 215 206 220 238 257 271 298 304 311 308 303 320 334 344 337 348 351 354 347 352 355 354 354 2 67 50 75 98 128 131 135 129 127 114 143 145 125
213 211 217 223 231 234 222 214 214 226 234 235 223 220 229 240 245 267 265 308 302 312 309 334 350 357 354 358 352 352 347 355 357 359 12 62 63 68 83 100 126 131 137 135 141 150 131 139 132
216 217 225 234 240 240 230 220 225 216 219 215 221 226 231 228 242 248 267 309 310 324 327 344 5 4 4 358 344 351 347 350 4 16 43 73 71 67 87 111 122 120 133 140 146 138 140 140 126